FW6987 Weather Reports


time (UTC)temp
F
wind
direction
speed
knots
gust
knots
rain 1hr
in
rain 24hr
in
rain mn
in
humidity
%
barometer
mb
20260503224553 56 0 0.0 2.6 0.00 0.00 0.00 38 1000.5
20260503223058 56 141 0.9 5.2 0.00 0.00 0.00 36 1000.4
20260503221554 56 112 0.0 3.5 0.00 0.00 0.00 35 1000.2
20260503220059 57 119 1.7 5.2 0.00 0.00 0.00 32 1000.1
20260503214551 57 141 1.7 7.8 0.00 0.00 0.00 32 1000.0
20260503213054 57 125 1.7 6.1 0.00 0.00 0.00 29 999.8
20260503211604 57 112 1.7 6.1 0.00 0.00 0.00 30 999.5
20260503210050 57 160 1.7 7.0 0.00 0.00 0.00 31 999.4
20260503204554 57 139 2.6 6.1 0.00 0.00 0.00 31 999.6
20260503203052 57 178 1.7 7.8 0.00 0.00 0.00 32 999.8
20260503201551 56 137 3.5 10.4 0.00 0.00 0.00 33 999.6
20260503200054 56 151 2.6 9.6 0.00 0.00 0.00 32 999.7
20260503194550 56 113 2.6 8.7 0.00 0.00 0.00 34 1000.0
20260503193056 56 244 3.5 7.8 0.00 0.00 0.00 33 1000.2
20260503191550 55 63 1.7 7.0 0.00 0.00 0.00 33 1000.6
20260503190055 56 125 1.7 7.0 0.00 0.00 0.00 35 1000.5
20260503184603 55 175 4.3 8.7 0.00 0.00 0.00 36 1000.3
20260503183051 55 150 4.3 9.6 0.00 0.00 0.00 35 1000.6
20260503181556 54 129 4.3 7.8 0.00 0.00 0.00 37 1000.9
20260503180051 52 164 0.9 9.6 0.00 0.00 0.00 41 1001.0
20260503174607 51 130 4.3 13.0 0.00 0.00 0.00 38 1001.2
20260503173050 54 146 1.7 11.3 0.00 0.00 0.00 39 1001.3
20260503171549 53 127 3.5 7.0 0.00 0.00 0.00 42 1001.4
20260503100110 38 0 0.0 7.8 0.00 0.00 0.00 70 1001.1
20260503090112 36 0 0.0 1.7 0.00 0.01 0.00 73 1000.9
20260503081556 38 114 0.0 1.7 0.00 0.05 0.00 70 1001.2
20260503071552 41 0 0.9 2.6 0.00 0.09 0.00 65 1001.3
20260503054553 43 110 0.9 4.3 0.00 0.18 0.00 60 1001.5
20260503053055 43 94 3.5 13.0 0.00 0.18 0.00 58 1001.4
20260503051552 43 128 5.2 12.2 0.00 0.18 0.00 58 1001.4
20260503050049 44 108 3.5 7.8 0.00 0.18 0.00 58 1001.8
20260503044555 44 99 1.7 7.0 0.00 0.19 0.00 56 1002.1
20260503043053 45 143 1.7 7.8 0.00 0.19 0.00 56 1002.3
20260503041553 45 70 2.6 7.8 0.00 0.19 0.00 54 1002.2
20260503040054 45 137 3.5 7.8 0.00 0.19 0.00 52 1002.3
20260503034603 45 120 4.3 8.7 0.00 0.19 0.19 51 1002.2
20260503033057 46 104 4.3 8.7 0.00 0.19 0.19 50 1002.2
20260503031555 46 101 3.5 7.8 0.00 0.19 0.19 49 1002.1
20260503030053 46 68 2.6 5.2 0.00 0.19 0.19 50 1002.3
20260503024551 46 78 3.5 8.7 0.00 0.19 0.19 49 1002.4
20260503023057 46 133 3.5 7.8 0.00 0.19 0.19 48 1002.6
20260503021552 46 56 1.7 7.8 0.00 0.19 0.19 47 1002.8
20260503020056 47 0 0.0 3.5 0.00 0.19 0.19 51 1002.8
20260503014605 47 101 1.7 7.0 0.00 0.19 0.19 47 1002.7
20260503013050 48 67 3.5 9.6 0.00 0.19 0.19 45 1002.6
20260503011550 49 92 2.6 7.0 0.00 0.19 0.19 43 1002.5
20260503010055 49 102 0.9 6.1 0.00 0.19 0.19 43 1002.3
20260503004552 49 0 1.7 5.2 0.00 0.19 0.19 46 1002.2
20260503003104 50 60 1.7 6.1 0.00 0.19 0.19 42 1001.8
20260503001614 50 104 2.6 6.1 0.00 0.19 0.19 43 1001.7
20260503000121 51 0 0.0 0.0 0.00 0.19 0.19 52 1001.6
20260502234555 51 120 0.9 7.0 0.00 0.19 0.19 44 1001.6
20260502233052 52 115 0.9 5.2 0.00 0.19 0.19 43 1001.5
20260502231553 52 116 0.9 7.0 0.00 0.19 0.19 43 1001.4
20260502230050 53 31 1.7 5.2 0.00 0.19 0.19 42 1001.4